Weather in Soltanovo

Russia / Kostroma Oblast     58°10′57″N   43°46′05″E
temp.,
°C
wind,
m/s
gust,
m/s
humid.,
%
clouds,
%
prec.,
mm/h
press.,
hPa
HPBL,
m
26 july, mon
mon2600:00+13w226760 0.0 102034
03:00+14wsw256297 0.0 1020108
06:00+14wsw276779 0.0 1021245
09:00+21wsw35455 0.0 1020839
12:00+24w463695 0.0 10192610
15:00+21w4849100 0.0 10181080
18:00+20w395419 0.0 1018727
21:00+18wsw3116395 0.0 1017340
27 july, tue
tue2700:00+14nnw388781 0.3 1018231
03:00+13nw259756 0.3 1019116
06:00+15nw26900 0.0 1019239
09:00+20nnw47513 0.0 10191015
12:00+23nnw474461 0.0 10191853
15:00+19nnw2661100 0.0 1018338
18:00+21nw2458100 0.0 10161005
21:00+15nw22830 0.0 101716
28 july, wed
wed2800:00+12nne11895 0.0 101811
03:00+10ne11725 0.0 101710
06:00+13n11614 0.0 101876
09:00+20nnw12415 0.0 1016703
12:00+24wnw23315 0.0 10151622
15:00+25w25310 0.0 10132360
18:00+22wsw235398 0.0 101163
21:00+19ssw266066 0.0 1010144
29 july, thu
thu2900:00+16ssw2480100 0.0 100980
03:00+15s279195 0.8 1007161
06:00+16sw2694100 0.4 1006216
09:00+17s3695100 0.9 1004348
12:00+18ssw468787 0.1 1003673
15:00+22sw357067 0.4 1002967
18:00+21wsw36835 1.2 1001305
21:00+17sw3997100 3.3 1000199
30 july, fri
fri3000:00+16w4119616 0.0 1000484
03:00+16w399634 0.0 1002453
06:00+16w28955 0.0 1002243
09:00+23w36610 0.0 1003927
12:00+26w574459 0.0 10032237
15:00+26w4743100 0.0 10032012
18:00+22wsw285958 0.0 1003233
21:00+19sw247659 0.1 100381